Smyrna, TN

1:58 AM CDT on May 25, 2017 (GMT -0500)
Smyrna

Weather History for KMQY - March, 2012

Change the Weather History Date:

Monday, March 26, 2012

  Actual Average Record
Temperature  
Mean Temperature 62 °F -  
Max Temperature 79 °F 60 °F 88 °F (2007)
Min Temperature 46 °F 44 °F 28 °F (2001)
Degree Days  
Heating Degree Days 2    
Growing Degree Days 12 (Base 50)    
Moisture  
Dew Point 49 °F    
Average Humidity 75    
Maximum Humidity 100    
Minimum Humidity 34    
Precipitation  
Precipitation 0.00 in - - ()
Sea Level Pressure  
Sea Level Pressure 30.09 in    
Wind  
Wind Speed 2 mph (NE)    
Max Wind Speed 14 mph    
Max Gust Speed 17 mph    
Visibility 6 miles    
Events Fog    
Averages and records for this station are not official NWS values.
T = Trace of Precipitation, MM = Missing Value Source: NWS Daily Summary

Daily Weather History Graph

Daily Weather History Graph

Search for Another Location

Airport or City:

Trip Planner

Search our weather history database for the weather conditions in past years. The results will help you decide how hot, cold, wet, or windy it might be!

Date:

Astronomy

Mar. 26, 2012 Rise Set
Actual Time 6:40 AM CDT 7:03 PM CDT
Civil Twilight 6:14 AM CDT 7:29 PM CDT
Nautical Twilight 5:44 AM CDT 7:59 PM CDT
Astronomical Twilight 5:13 AM CDT 8:29 PM CDT
Moon 8:37 AM CDT (3/26) 11:04 PM CDT (3/26)
Length of Visible Light 13h 14m
Length of Day
12h 23m
Waxing Crescent, 15% of the Moon is Illuminated
Mar 26
Waxing Crescent
Mar 30
First Quarter
Apr 6
Full
Apr 13
Last Quarter
Apr 21
New

Hourly Weather History & Observations

Time (CDT) Temp. Dew Point Humidity Pressure Visibility Wind Dir Wind Speed Gust Speed Precip Events Conditions
12:56 AM 54.0 °F 52.0 °F 93% 30.03 in 7.0 mi Calm Calm - N/A   Clear
1:56 AM 52.9 °F 50.9 °F 93% 30.03 in 5.0 mi Calm Calm - N/A   Clear
2:56 AM 52.0 °F 50.9 °F 96% 30.04 in 6.0 mi Calm Calm - N/A   Clear
3:56 AM 50.0 °F 50.0 °F 100% 30.04 in 3.0 mi Calm Calm - N/A   Clear
4:06 AM 50.0 °F 50.0 °F 100% 30.06 in 1.8 mi Calm Calm - N/A   Clear
4:29 AM 50.0 °F 50.0 °F 100% 30.06 in 1.0 mi Calm Calm - N/A   Clear
4:33 AM 51.8 °F 51.8 °F 100% 30.06 in 0.5 mi Calm Calm - N/A Fog Fog
4:47 AM 50.0 °F 50.0 °F 100% 30.05 in 0.8 mi Calm Calm - N/A   Clear
4:56 AM 48.9 °F 48.9 °F 100% 30.04 in 0.5 mi Calm Calm - N/A Fog Fog
5:22 AM 48.2 °F 48.2 °F 100% 30.07 in 1.5 mi Calm Calm - N/A   Clear
5:28 AM 48.2 °F 48.2 °F 100% 30.07 in 3.0 mi Calm Calm - N/A   Clear
5:42 AM 48.2 °F 48.2 °F 100% 30.07 in 2.0 mi Calm Calm - N/A   Clear
5:56 AM 47.8 °F 47.8 °F 100% 30.06 in 6.0 mi Calm Calm - N/A   Clear
6:27 AM 48.2 °F 48.2 °F 100% 30.09 in 1.2 mi Calm Calm - N/A   Clear
6:29 AM 48.2 °F 48.2 °F 100% 30.09 in 0.8 mi Calm Calm - N/A   Clear
6:34 AM 48.2 °F 48.2 °F 100% 30.09 in 0.2 mi Calm Calm - N/A Fog Fog
6:48 AM 46.4 °F 46.4 °F 100% 30.09 in 0.5 mi Calm Calm - N/A Fog Fog
7:56 AM 54.0 °F 54.0 °F 100% 30.12 in 4.0 mi Calm Calm - N/A   Clear
8:56 AM 61.9 °F 57.9 °F 87% 30.13 in 8.0 mi Calm Calm - N/A   Clear
9:56 AM 68.9 °F 56.8 °F 65% 30.14 in 10.0 mi Calm Calm - N/A   Clear
10:56 AM 73.9 °F 52.9 °F 48% 30.14 in 10.0 mi ENE 10.4 mph 17.3 mph 0.00 in   Clear
11:56 AM 77.0 °F 54.0 °F 45% 30.13 in 10.0 mi North 10.4 mph - N/A   Clear
12:56 PM 77.9 °F 52.0 °F 40% 30.11 in 10.0 mi NE 13.8 mph - N/A   Partly Cloudy
1:56 PM 79.9 °F 50.9 °F 36% 30.10 in 10.0 mi Variable 6.9 mph - N/A   Scattered Clouds
2:56 PM 79.9 °F 48.9 °F 34% 30.08 in 10.0 mi NE 12.7 mph - N/A   Clear
3:56 PM 79.9 °F 48.9 °F 34% 30.07 in 10.0 mi NNE 12.7 mph - N/A   Partly Cloudy
4:56 PM 77.9 °F 47.8 °F 35% 30.06 in 10.0 mi NNE 13.8 mph - N/A   Clear
5:56 PM 75.9 °F 45.9 °F 34% 30.07 in 10.0 mi NE 12.7 mph - N/A   Clear
6:56 PM 70.9 °F 46.9 °F 42% 30.09 in 10.0 mi NE 11.5 mph - N/A   Clear
7:56 PM 66.9 °F 47.8 °F 50% 30.10 in 10.0 mi NE 8.1 mph - N/A   Clear
8:56 PM 64.9 °F 45.9 °F 50% 30.12 in 10.0 mi NE 9.2 mph - N/A   Clear
9:56 PM 63.0 °F 45.0 °F 52% 30.13 in 10.0 mi NE 6.9 mph - N/A   Clear
10:56 PM 61.0 °F 43.9 °F 53% 30.14 in 10.0 mi NE 9.2 mph - N/A   Clear
11:56 PM 57.9 °F 43.9 °F 60% 30.15 in 10.0 mi NE 5.8 mph - N/A   Clear